www.pogodaiklimat.ru

Погода и климат >> Архив погоды >> Россия >> Якутия >> Витим


АРХИВ ПОГОДЫ в Витиме

Время (UTC), дата Ветер
(напр.,м/с)
 
Видим.   Явления Облачность Т
(С)
Тd
(С)
f
(%)
Тe
(С)
Тes
(С)
Комфортность P
(гПа)
Po
(гПа)
Тmin
(С)
Tmax
(С)
R
(мм)
R24
(мм)
S
(см)
12 11.06 штиль 0 20 км 9/4 1000 м
[Cb cap Ac trans Ci fib]
+20.4 +13.2 63 +22 +23 комфорт 990.8 969.3 +26.5
15 11.06 ЮЗ 5 20 км 9/3 1000 м
[Cb cap Ac trans Ci fib]
+17.6 +13.0 74 +17 +17 991.5 969.8
18 11.06 З 6
{11}
20 км в посл. час ливневой дождь 9/5 600 м
[Cb cap Ac trans]
+14.3 +11.9 85 +12 +12 997.5 975.4
21 11.06 З 6
{11}
20 км 9/4 600 м
[Cb cap Ac lent Cs]
+12.5 +7.1 70 +10 +10 1001.7 979.4
00 12.06 СЗ 3 20 км 9/4 600 м
[Cb cap Ac trans]
+12.1 +6.4 68 +11 +12 1005.9 983.4 +12.0 0.6
03 12.06 З 5 20 км слаб. ливневой дождь 9/6 600 м
[Cb cap Ac lent Ci fib]
+12.9 +8.3 74 +11 +13 1008.2 985.8 +11.1
06 12.06 З 5 20 км {ливн. осадки} 8/5 600 м
[Cb cap Ac trans]
+14.9 +6.5 57 +14 +16 1009.2 986.9
09 12.06 З 4 20 км 6/6 1000 м
[Cb cap]
+17.2 +3.1 39 +17 +18 1010.1 987.9
12 12.06 С 4 20 км 3/0
[Ci fib]
+16.4 +4.3 45 +16 +16 1011.1 988.8 +17.9 3
15 12.06 штиль 0 20 км ясно +8.0 +5.6 85 +7 +7 1012.7 989.7
18 12.06 штиль 0 20 км ясно +4.4 +3.4 93 +3 +3 1013.9 990.6
21 12.06 штиль 0 20 км 6/0
[Ac trans]
+4.0 +3.3 95 +3 +3 1014.5 991.2
00 13.06 ЮВ 1 20 км 9/3 1000 м
[Sc Ac trans Ci fib]
+8.0 +5.1 82 +7 +10 1013.7 990.7 +2.4
03 13.06 ЮВ 1 20 км слаб. ливневой дождь 10/5 600 м
[Cb cap Ac As]
+16.6 +5.8 49 +18 +20 1012.0 989.4
06 13.06 В 1 20 км {ливн. осадки} 10/5 600 м
[Cb cap Ac As]
+12.3 +8.5 78 +12 +15 1011.3 988.8
09 13.06 ЮВ 2 20 км 10/4 600 м
[Cb cap Ac As]
+13.4 +8.2 71 +13 +14 1010.8 988.3
12 13.06 штиль 0 20 км 10/6 600 м
[Cb cap Ac As]
+14.0 +10.4 79 +14 +14 1011.2 988.7 +14.2 0.8
15 13.06 штиль 0 20 км 9/6 1000 м
[Sc Ac trans]
+12.6 +9.7 82 +12 +12 1011.2 988.7
18 13.06 С 2 20 км 9/5 1000 м
[Sc Ac trans]
+11.9 +9.9 88 +11 +11 1011.1 988.5
21 13.06 С 3 20 км 9/5 1000 м
[Sc Ci fib]
+11.3 +8.9 85 +9 +10 1010.8 988.2
00 14.06 СВ 3 20 км 6/0
[Ci fib]
+14.3 +9.4 72 +13 +18 1010.0 987.6 +10.5
03 14.06 СВ 2 20 км 9/0
[Ci fib]
+19.3 +11.7 61 +21 +32 комфорт 1008.2 986.3
06 14.06 штиль 0 20 км 8/3 1000 м
[Cb cap Ci fib]
+23.8 +13.1 51 +26 +37 жарко 1006.2 984.7
09 14.06 СВ 2 20 км 4/3 1000 м
[Cb cap Ci fib]
+26.5 +13.7 45 +29 +33 жарко 1004.2 982.8
12 14.06 С 3 20 км 3/0
[Ci fib]
+26.2 +11.7 40 +27 +28 жарко 1003.1 981.8 +26.8
15 14.06 СЗ 1 20 км 1/0
[Ci fib]
+18.7 +9.7 56 +20 +20 1003.7 981.8
18 14.06 штиль 0 20 км ясно +12.5 +10.6 88 +12 +12 1004.1 981.8
21 14.06 штиль 0 4000 м дымка ясно +10.8 +9.2 90 +10 +11 1004.3 981.8
00 15.06 штиль 0 20 км 1/0
[Ci fib]
+16.0 +9.7 66 +16 +24 1004.2 982.1 +10.4
03 15.06 штиль 0 20 км 6/0
[Ci fib]
+22.8 +12.1 51 +25 +41 комфорт 1002.3 980.7
06 15.06 ЮВ 4 20 км 9/4 1000 м
[Cu hum Ci fib]
+29.6 +12.5 35 +31 +35 жарко 1000.9 979.8
09 15.06 Ю 5 20 км 9/4 1000 м
[Cu hum Ci fib]
+30.3 +11.9 32 +31 +32 жарко 1000.2 979.2
12 15.06 Ю 1 20 км 9/0
[Ac trans Ci fib]
+26.0 +14.3 48 +28 +29 жарко 1001.3 980.0 +31.6
15 15.06 Ю 1 20 км 9/4 1000 м
[Sc Ac trans]
+18.3 +13.8 75 +20 +20 1002.8 980.9
18 15.06 штиль 0 20 км 9/5 1000 м
[Sc Ac trans]
+16.8 +11.9 73 +17 +17 1003.7 981.7
21 15.06 штиль 0 20 км 9/6 1000 м
[Sc Ac trans]
+15.4 +13.1 86 +15 +15 1004.3 982.2
00 16.06 ЮВ 1 20 км 10/6 1000 м
[Cb cap Ac trans Cs]
+16.7 +13.9 84 +18 +19 1004.8 982.7 +15.3
03 16.06 ЮВ 1 20 км 10/5 600 м
[Cb cap Ac lent Cs]
+20.2 +15.1 72 +24 +28 комфорт 1005.2 983.4
06 16.06 СВ 1 20 км {ливн. осадки} 9/4 600 м
[Cb cap Ac lent Cs]
+21.2 +15.3 69 +24 +30 комфорт 1005.7 984.0
09 16.06 СЗ 3 20 км 8/3 1000 м
[Cb cap Ac trans Ci fib]
+22.5 +15.3 64 +26 +29 жарко 1005.5 983.9
12 16.06 С 4 20 км 9/4 1000 м
[Sc Cc]
+22.5 +17.0 71 +27 +27 душно 1005.4 983.8 +23.8 0.3
15 16.06 С 3 20 км слаб. ливневой дождь 9/6 1000 м
[Cb cap Ac trans Ci fib]
+20.6 +16.7 78 +24 +24 комфорт 1005.7 984.0
18 16.06 С 2 20 км слаб. ливневой дождь 9/8 600 м
[Cb cap Ac lent]
+16.6 +14.9 90 +17 +17 1006.5 984.4
21 16.06 С 2 20 км {ливн. осадки} 9/8 600 м
[Cb cap Ac trans Cc]
+16.1 +14.7 91 +16 +16 1006.3 984.2
00 17.06 С 2 20 км {ливн. осадки} 9/5 600 м
[Cb cap Ac trans Cc]
+17.8 +15.4 86 +18 +20 1006.2 984.2 +15.5 2
03 17.06 С 2 20 км 8/3 1000 м
[Cb cap Ac trans Cc]
+23.3 +15.7 62 +28 +34 душно 1005.3 983.7
06 17.06 С 1 20 км 4/3 1000 м
[Cb cap Ci fib]
+30.8 +16.7 43 +34 +45 очень
душно
1003.1 982.2
09 17.06 З 1 20 км 6/4 600 м
[Cb cap Cs]
+32.8 +14.7 34 +35 +39 душно 1001.7 980.9
12 17.06 СЗ 1 20 км 6/3 1000 м
[Cb cap Ac lent Ci fib]
+29.1 +17.6 50 +33 +34 очень
душно
1002.3 981.2 +33.0
15 17.06 штиль 0 20 км 9/0
[Ac trans Ci fib]
+20.4 +15.9 75 +23 +23 комфорт 1003.0 981.3
18 17.06 штиль 0 20 км 6/0
[Ac trans Ci fib]
+17.8 +15.8 88 +18 +18 1003.7 981.8
21 17.06 штиль 0 20 км 4/0
[Ac lent Ci fib]
+16.4 +14.5 89 +16 +17 1003.8 981.8
00 18.06 Ю 1 20 км 9/0
[Ac lent Ci fib]
+18.2 +16.0 87 +20 +23 1005.0 983.0 +16.3
03 18.06 штиль 0 20 км 9/4 1000 м
[St Ac lent]
+24.1 +16.5 63 +28 +31 душно 1005.6 984.1
06 18.06 З 1 20 км в посл. час ливневой дождь 10/5 600 м
[Cb cap Ac lent Cs]
+21.3 +16.9 76 +25 +29 комфорт 1008.2 986.5

 

Местоположение метеостанции Витим (Якутия, Россия): широта 59.45 долгота 112.50 высота над уровнем моря 190 м.

В архиве по умолчанию представлена погода в Витиме за последнюю неделю. Архивные данные за месяц целиком и за предыдущие месяцы, начиная с января 2011 года, Вы можете получить, выбрав интересующий диапазон дат из раскрывающегося списка и нажав кнопку "Ввод!".


*Определитесь, кто Вы:
робот инопланетянин человек

Внимание! Время в таблицах - всемирное. Для получения местного времени необходимо прибавить поправку, которая равна 9 ч.

Смотрите также архив погоды в соседних городах и на ближайших метеорологических станциях:

Погода в Комаке (Якутия, Россия) (102 км)
Погода в Маме (Иркутская область, Россия) (127 км)
Погода в Ленске (Якутия, Россия) (190 км)
Погода в Мамакане (Иркутская область, Россия) (202 км)
Погода в Перевозе (Иркутская область, Россия) (255 км)
Погода в Преображенке (Иркутская область, Россия) (261 км)
Погода в Дорожном (Якутия, Россия) (267 км)
Погода в Маче (Якутия, Россия) (291 км)
Погода в Ербогачене (Иркутская область, Россия) (320 км)
Погода в Киренске (Иркутская область, Россия) (321 км)

Пояснения к столбцам:

Ветер - указаны скорость ветра в м/с - средняя за 10 мин, порывы в срок и между сроками (в фигурных скобках) и направление, откуда дует ветер: С - северный, СВ - северо-восточный, В - восточный, ЮВ - юго-восточный, Ю - южный, ЮЗ - юго-западный, З - западный, СЗ - северо-западный.
Видимость - горизонтальная дальность видимости в метрах или километрах. При видимости от 1 до 10 км при отсутствии осадков обычно наблюдается дымка, при ухудшении видимости до 1 км и менее - туман. В сухую погоду видимость может ухудшаться дымом, пылью или мглою.
Явления - указаны атмосферные явления, наблюдавшиеся в срок или в последний час перед сроком; фигурными скобками обозначены явления, наблюдавшиеся между сроками (за 1-3 часа до срока); квадратными скобками обозначены град или гололедные отложения с указанием их диаметра в мм.
Облачность - указаны через наклонную черту общая и нижняя облачность в баллах и высота нижней границы облаков в метрах; квадратными скобками обозначены формы облаков: Ci - перистые, Cs - перисто-слоистые, Cc - перисто-кучевые, Ac - высококучевые, As - высокослоистые, Sc - слоисто-кучевые, Ns - слоисто-дождевые, Cu - кучевые, Cb - кучево-дождевые. Подробнее классификацию облаков см. в Атласе облаков (PDF).
T - Температура воздуха - температура, измеренная на высоте 2 м над землей.
Td - Температура точки росы - температура, при понижении до которой содержащийся в воздухе водяной пар достигнет насыщения.
f - Относительная влажность воздуха - влажноcть воздуха, измеренная на высоте 2 м над землей.
Te - Эффективная температура - температура, которую ощущает одетый по сезону человек в тени. Характеристика душности погоды. При расчете учитывается влияние влажности воздуха и скорости ветра на теплоощущения человека.
Tes - Эффективная температура на солнце - температура, которую ощущает человек, с поправкой на солнечный нагрев. Характеристика знойности погоды. Зависит от высоты солнца над горизонтом, облачности и скорости ветра. Ночью, в пасмурную погоду, а также при ветре 12 м/с и более поправка равна нулю.
P - Атмосферное давление - приведенное к уровню моря атмосферное давление.
Po - Атмосферное давление - измеренное на уровне метеостанции атмосферное давление.
Tmin - Минимальная температура - минимум температуры воздуха на высоте 2 м над землей.
Tmax - Максимальная температура - максимум температуры воздуха на высоте 2 м над землей.
R - Количество осадков - Количество выпавших осадков за период времени, мм. При наведении курсора мыши на число - период времени, за который выпало указанное количество осадков.
R24 - Количество осадков - Количество выпавших осадков за 24 часа, мм.
S - Снежный покров - Высота снежного покрова, см. При наведении курсора мыши на число - состояние снежного покрова и степень покрытия местности в баллах.